When you browse on this site, cookies collect data to enhance your experience and personalize the content and advertising you see.
Visit our Privacy Policy to learn more. By continuing to use the site, you agree to this use of cookies and data.
  • In Spain
  • List of Countries
  • For 7 days
  • Water Temperature
  • Weather Map
  • Weather Widgets
  • user-avatar
    Login

    Hourly Weather Bristol

    Today, 12 December, Thursday

    Time Temperature Precipitation Wind Pressure Humidity
    00:00 +2°C° 0 mm 3 mps 751 mmHg 84%
    01:00 +2°C° 0 mm 3 mps 750 mmHg 85%
    02:00 +2°C° 0 mm 3 mps 750 mmHg 86%
    03:00 +2°C° 0 mm 3 mps 749 mmHg 88%
    04:00 +1°C° 0 mm 4 mps 748 mmHg 87%
    05:00 +1°C° 0 mm 4 mps 747 mmHg 87%
    06:00 +2°C° 0 mm 5 mps 746 mmHg 86%
    07:00 +3°C° 1.1 mm 6 mps 744 mmHg 89%
    08:00 +4°C° 1.1 mm 7 mps 742 mmHg 92%
    09:00 +5°C° 1.1 mm 7 mps 741 mmHg 95%
    10:00 +5°C° 2 mm 6 mps 739 mmHg 95%
    11:00 +7°C° 2 mm 5 mps 738 mmHg 96%
    12:00 +7°C° 2 mm 4 mps 737 mmHg 96%
    13:00 +7°C° 1.6 mm 4 mps 736 mmHg 96%
    14:00 +7°C° 1.6 mm 4 mps 735 mmHg 96%
    15:00 +7°C° 1.6 mm 4 mps 734 mmHg 95%
    16:00 +7°C° 0.1 mm 4 mps 733 mmHg 93%
    17:00 +7°C° 0.1 mm 4 mps 733 mmHg 92%
    18:00 +6°C° 0.1 mm 4 mps 732 mmHg 90%
    19:00 +6°C° 0.2 mm 5 mps 732 mmHg 90%
    20:00 +6°C° 0.2 mm 5 mps 732 mmHg 91%
    21:00 +5°C° 0.2 mm 5 mps 731 mmHg 92%
    22:00 +4°C° 0.7 mm 6 mps 731 mmHg 89%
    23:00 +4°C° 0.7 mm 7 mps 731 mmHg 86%

    Tomorrow, 13 December, Friday

    Time Temperature Precipitation Wind Pressure Humidity
    00:00 +4°C° 0.7 mm 7 mps 731 mmHg 83%
    01:00 +4°C° 0.1 mm 8 mps 731 mmHg 84%
    02:00 +2°C° 0.1 mm 10 mps 731 mmHg 85%
    03:00 +2°C° 0.1 mm 11 mps 731 mmHg 86%
    04:00 +3°C° 0.4 mm 11 mps 731 mmHg 85%
    05:00 +3°C° 0.4 mm 11 mps 732 mmHg 84%
    06:00 +3°C° 0.4 mm 11 mps 733 mmHg 83%
    07:00 +3°C° 0 mm 10 mps 734 mmHg 82%
    08:00 +2°C° 0 mm 10 mps 735 mmHg 81%
    09:00 +2°C° 0 mm 10 mps 736 mmHg 80%
    10:00 +2°C° 0 mm 10 mps 737 mmHg 77%
    11:00 +3°C° 0 mm 10 mps 738 mmHg 74%
    12:00 +3°C° 0 mm 9 mps 738 mmHg 71%
    13:00 +3°C° 0 mm 9 mps 739 mmHg 71%
    14:00 +3°C° 0 mm 9 mps 739 mmHg 71%
    15:00 +4°C° 0 mm 8 mps 740 mmHg 71%
    16:00 +3°C° 0 mm 7 mps 740 mmHg 74%
    17:00 +3°C° 0 mm 6 mps 740 mmHg 76%
    18:00 +3°C° 0 mm 6 mps 740 mmHg 78%
    19:00 +3°C° 0.1 mm 5 mps 739 mmHg 83%
    20:00 +3°C° 0.1 mm 5 mps 738 mmHg 87%
    21:00 +2°C° 0.1 mm 5 mps 738 mmHg 92%
    22:00 +4°C° 0.2 mm 7 mps 737 mmHg 89%
    23:00 +6°C° 0.2 mm 9 mps 736 mmHg 85%

    Day after tomorrow, 14 December, Saturday

    Time Temperature Precipitation Wind Pressure Humidity
    00:00 +8°C° 0.2 mm 11 mps 736 mmHg 82%
    01:00 +6°C° 0 mm 11 mps 736 mmHg 81%
    02:00 +4°C° 0 mm 11 mps 737 mmHg 80%
    03:00 +3°C° 0 mm 10 mps 738 mmHg 78%
    04:00 +3°C° 0 mm 9 mps 739 mmHg 76%
    05:00 +4°C° 0 mm 8 mps 740 mmHg 74%
    06:00 +3°C° 0 mm 7 mps 741 mmHg 72%
    07:00 +3°C° 0.4 mm 6 mps 741 mmHg 78%
    08:00 +3°C° 0.4 mm 6 mps 741 mmHg 84%
    09:00 +2°C° 0.4 mm 5 mps 741 mmHg 90%
    10:00 +3°C° 0.5 mm 6 mps 741 mmHg 88%
    11:00 +4°C° 0.5 mm 6 mps 741 mmHg 86%
    12:00 +4°C° 0.5 mm 7 mps 742 mmHg 84%
    13:00 +4°C° 0.2 mm 6 mps 742 mmHg 79%
    14:00 +3°C° 0.2 mm 6 mps 743 mmHg 75%
    15:00 +3°C° 0.2 mm 5 mps 743 mmHg 71%
    16:00 +2°C° 0 mm 5 mps 743 mmHg 75%
    17:00 +2°C° 0 mm 5 mps 743 mmHg 78%
    18:00 +1°C° 0 mm 5 mps 743 mmHg 82%
    19:00 +2°C° 0 mm 5 mps 742 mmHg 83%
    20:00 +2°C° 0 mm 5 mps 742 mmHg 84%
    21:00 +2°C° 0 mm 5 mps 741 mmHg 85%
    22:00 +2°C° 2.2 mm 5 mps 740 mmHg 89%
    23:00 +1°C° 2.2 mm 4 mps 740 mmHg 94%

    15 December, Sunday

    Time Temperature Precipitation Wind Pressure Humidity
    00:00 0°C° 2.2 mm 4 mps 739 mmHg 98%
    01:00 0°C° 0.5 mm 4 mps 740 mmHg 96%
    02:00 +1°C° 0.5 mm 4 mps 740 mmHg 94%
    03:00 +1°C° 0.5 mm 4 mps 741 mmHg 92%
    04:00 +1°C° 0.1 mm 4 mps 741 mmHg 91%
    05:00 +1°C° 0.1 mm 4 mps 742 mmHg 90%
    06:00 +1°C° 0.1 mm 4 mps 743 mmHg 89%
    07:00 +1°C° 0.3 mm 6 mps 744 mmHg 88%
    08:00 0°C° 0.3 mm 7 mps 745 mmHg 87%
    09:00 +1°C° 0.3 mm 8 mps 745 mmHg 86%
    10:00 +1°C° 0.2 mm 8 mps 746 mmHg 82%
    11:00 +2°C° 0.2 mm 8 mps 746 mmHg 78%
    12:00 +4°C° 0.2 mm 8 mps 747 mmHg 74%
    13:00 +2°C° 0.3 mm 8 mps 747 mmHg 78%
    14:00 +2°C° 0.3 mm 8 mps 746 mmHg 83%
    15:00 +2°C° 0.3 mm 8 mps 746 mmHg 87%
    16:00 +2°C° 0.5 mm 8 mps 746 mmHg 85%
    17:00 +2°C° 0.5 mm 8 mps 746 mmHg 84%
    18:00 +2°C° 0.5 mm 8 mps 746 mmHg 82%
    19:00 +1°C° 0 mm 8 mps 746 mmHg 81%
    20:00 +2°C° 0 mm 7 mps 746 mmHg 79%
    21:00 +2°C° 0 mm 7 mps 747 mmHg 77%
    22:00 +2°C° 0 mm 7 mps 747 mmHg 78%
    23:00 +2°C° 0 mm 8 mps 747 mmHg 78%

    16 December, Monday

    Time Temperature Precipitation Wind Pressure Humidity
    00:00 +2°C° 0 mm 8 mps 747 mmHg 79%
    01:00 +2°C° 0 mm 8 mps 747 mmHg 79%
    02:00 +2°C° 0 mm 7 mps 747 mmHg 79%
    03:00 +2°C° 0 mm 7 mps 747 mmHg 78%
    04:00 +1°C° 0 mm 8 mps 747 mmHg 78%
    05:00 +1°C° 0 mm 8 mps 747 mmHg 78%
    06:00 +1°C° 0 mm 9 mps 747 mmHg 78%
    07:00 +2°C° 0 mm 8 mps 748 mmHg 80%
    08:00 +3°C° 0 mm 7 mps 749 mmHg 82%
    09:00 +3°C° 0 mm 6 mps 749 mmHg 83%
    10:00 +3°C° 0 mm 5 mps 750 mmHg 81%
    11:00 +5°C° 0 mm 5 mps 751 mmHg 79%
    12:00 +5°C° 0 mm 4 mps 751 mmHg 77%
    13:00 +5°C° 0 mm 3 mps 751 mmHg 79%
    14:00 +5°C° 0 mm 3 mps 751 mmHg 81%
    15:00 +4°C° 0 mm 3 mps 751 mmHg 84%
    16:00 +5°C° 0 mm 2 mps 751 mmHg 85%
    17:00 +4°C° 0 mm 2 mps 751 mmHg 86%
    18:00 +5°C° 0 mm 1 mps 751 mmHg 86%
    19:00 +5°C° 0 mm 1 mps 751 mmHg 87%
    20:00 +5°C° 0 mm 1 mps 751 mmHg 88%
    21:00 +4°C° 0 mm 0 mps 751 mmHg 88%
    22:00 +5°C° 0.2 mm 1 mps 751 mmHg 88%
    23:00 +5°C° 0.2 mm 1 mps 751 mmHg 89%

    17 December, Tuesday

    Time Temperature Precipitation Wind Pressure Humidity
    00:00 +5°C° 0.2 mm 1 mps 751 mmHg 89%
    01:00 +4°C° 1.5 mm 2 mps 751 mmHg 91%
    02:00 +3°C° 1.5 mm 2 mps 751 mmHg 92%
    03:00 +2°C° 1.5 mm 3 mps 751 mmHg 94%
    04:00 +1°C° 3.3 mm 4 mps 751 mmHg 95%
    05:00 0°C° 3.3 mm 4 mps 751 mmHg 96%
    06:00 0°C° 3.3 mm 4 mps 751 mmHg 97%
    07:00 +1°C° 0.5 mm 3 mps 752 mmHg 96%
    08:00 +2°C° 0.5 mm 2 mps 752 mmHg 96%
    09:00 +3°C° 0.5 mm 2 mps 753 mmHg 95%
    10:00 +3°C° 0 mm 2 mps 753 mmHg 93%
    11:00 +4°C° 0 mm 2 mps 754 mmHg 92%
    12:00 +4°C° 0 mm 2 mps 754 mmHg 90%
    13:00 +4°C° 0 mm 2 mps 755 mmHg 89%
    14:00 +4°C° 0 mm 2 mps 756 mmHg 87%
    15:00 +3°C° 0 mm 3 mps 756 mmHg 86%
    16:00 +3°C° 0 mm 3 mps 757 mmHg 87%
    17:00 +2°C° 0 mm 3 mps 757 mmHg 87%
    18:00 +2°C° 0 mm 3 mps 758 mmHg 88%
    19:00 +1°C° 0 mm 3 mps 758 mmHg 87%
    20:00 +1°C° 0 mm 3 mps 759 mmHg 87%
    21:00 +1°C° 0 mm 3 mps 759 mmHg 87%
    22:00 +1°C° 0 mm 3 mps 760 mmHg 87%
    23:00 +1°C° 0 mm 3 mps 760 mmHg 86%
    Show more